GW6823 Weather Reports


time (UTC)temp
C
wind
direction
speed
KPH
gust
KPH
rain 1hr
cm
rain 24hr
cm
rain mn
cm
humidity
%
barometer
mb
20260510104500 16 195 3.2 4.8 0.00 0.00 0.00 92 1009.9
20260510104000 16 184 3.2 4.8 0.00 0.00 0.00 92 1009.9
20260510103500 16 185 3.2 4.8 0.00 0.00 0.00 92 1010.0
20260510103000 16 187 3.2 6.4 0.00 0.00 0.00 92 1009.9
20260510102500 16 186 3.2 6.4 0.00 0.00 0.00 92 1009.9
20260510102000 16 174 4.8 6.4 0.00 0.00 0.00 92 1009.8
20260510101500 16 185 4.8 4.8 0.00 0.00 0.00 92 1009.8
20260510101000 16 181 3.2 4.8 0.00 0.00 0.00 91 1009.6
20260510100500 16 163 3.2 3.2 0.00 0.00 0.00 92 1009.5
20260510100000 16 104 1.6 1.6 0.00 0.00 0.00 92 1009.6
20260510095500 16 204 1.6 1.6 0.00 0.00 0.00 92 1009.6
20260510095000 16 209 1.6 1.6 0.00 0.00 0.00 92 1009.6
20260510094500 16 140 0.0 1.6 0.00 0.00 0.00 92 1009.5
20260510094000 16 315 1.6 1.6 0.00 0.00 0.00 92 1009.4
20260510093500 16 307 1.6 3.2 0.00 0.00 0.00 91 1009.3
20260510093000 16 298 1.6 3.2 0.00 0.00 0.00 91 1009.1
20260510092500 17 308 3.2 3.2 0.00 0.00 0.00 92 1008.9
20260510092000 17 295 3.2 3.2 0.00 0.00 0.00 92 1008.8
20260510091500 16 235 1.6 1.6 0.00 0.00 0.00 91 1008.8
20260510091000 16 169 1.6 1.6 0.00 0.00 0.00 91 1008.7
20260510090500 16 312 0.0 1.6 0.00 0.00 0.00 91 1008.6
20260510090000 16 220 1.6 3.2 0.00 0.00 0.00 91 1008.6
20260510085500 16 330 1.6 3.2 0.00 0.00 0.00 91 1008.6
20260510085000 16 327 3.2 3.2 0.00 0.00 0.00 90 1008.4
20260510084500 17 340 3.2 3.2 0.00 0.00 0.00 91 1008.2
20260510084000 17 3 1.6 3.2 0.00 0.00 0.00 91 1008.3
20260510083500 17 63 1.6 4.8 0.00 0.00 0.00 91 1008.3
20260510083000 17 7 3.2 4.8 0.00 0.00 0.00 91 1008.2
20260510082500 17 5 4.8 4.8 0.00 0.00 0.00 91 1008.1
20260510082000 17 56 3.2 3.2 0.00 0.00 0.00 91 1008.1
20260510081500 17 125 1.6 3.2 0.00 0.00 0.00 90 1008.0
20260510081000 17 149 0.0 3.2 0.00 0.00 0.00 90 1008.1
20260510080500 17 263 1.6 3.2 0.00 0.00 0.00 91 1008.2
20260510080000 17 284 1.6 3.2 0.00 0.00 0.00 90 1008.1
20260510075500 17 109 0.0 3.2 0.00 0.00 0.00 90 1007.9
20260510075000 17 160 3.2 3.2 0.00 0.00 0.00 90 1007.9
20260510074500 17 221 1.6 1.6 0.00 0.00 0.00 90 1007.9
20260510074000 17 33 0.0 1.6 0.00 0.00 0.00 90 1007.9
20260510073500 17 275 1.6 3.2 0.00 0.00 0.00 90 1008.1
20260510073000 17 268 0.0 3.2 0.00 0.00 0.00 90 1008.0
20260510072500 17 117 1.6 3.2 0.00 0.00 0.00 89 1008.0
20260510072000 17 142 1.6 1.6 0.00 0.00 0.00 89 1008.0
20260510071500 17 158 1.6 1.6 0.00 0.00 0.00 88 1008.1
20260510071000 17 178 1.6 3.2 0.00 0.00 0.00 88 1008.2
20260510070500 17 230 1.6 3.2 0.00 0.00 0.00 88 1008.2
20260510070000 18 289 1.6 3.2 0.00 0.00 0.00 87 1008.4
20260510065500 18 279 1.6 3.2 0.00 0.00 0.00 86 1008.3
20260510065000 18 292 3.2 3.2 0.00 0.00 0.00 85 1008.2
20260510064500 18 263 1.6 3.2 0.00 0.00 0.00 83 1008.2
20260510064000 18 220 1.6 3.2 0.00 0.00 0.00 83 1008.1
20260510063500 18 175 3.2 3.2 0.00 0.00 0.00 83 1008.2
20260510063000 18 117 1.6 1.6 0.00 0.00 0.00 83 1008.1
20260510062500 18 58 1.6 1.6 0.00 0.00 0.00 84 1008.2
20260510062000 18 161 0.0 1.6 0.00 0.00 0.00 84 1008.1
20260510061500 18 192 1.6 3.2 0.00 0.00 0.00 83 1008.2
20260510061000 18 199 1.6 4.8 0.00 0.00 0.00 83 1008.2
20260510060500 18 200 3.2 4.8 0.00 0.00 0.00 82 1008.1
20260510060000 18 207 3.2 6.4 0.00 0.00 0.00 82 1008.1
20260510055500 18 234 3.2 6.4 0.00 0.00 0.00 83 1008.0
20260510055000 18 189 3.2 4.8 0.00 0.00 0.00 83 1007.9
20260510054500 18 177 3.2 4.8 0.00 0.00 0.00 82 1007.9
20260510054000 18 191 3.2 4.8 0.00 0.00 0.00 81 1007.8
20260510053500 19 182 4.8 4.8 0.00 0.00 0.00 81 1007.8
20260510053000 19 196 3.2 4.8 0.00 0.00 0.00 80 1007.8
20260510052500 19 193 3.2 3.2 0.00 0.00 0.00 80 1008.0
20260510052000 19 187 3.2 3.2 0.00 0.00 0.00 79 1007.9
20260510051500 19 207 1.6 4.8 0.00 0.00 0.00 79 1007.9
20260510051000 19 219 3.2 4.8 0.00 0.00 0.00 79 1007.9
20260510050500 19 217 4.8 4.8 0.00 0.00 0.00 80 1007.9
20260510050000 19 202 3.2 4.8 0.00 0.00 0.00 81 1007.8
20260510045500 19 187 3.2 4.8 0.00 0.00 0.00 80 1007.8
20260510045000 20 204 3.2 4.8 0.00 0.00 0.00 79 1007.8
20260510044500 19 210 3.2 4.8 0.00 0.00 0.00 81 1007.9
20260510044000 20 190 4.8 4.8 0.00 0.00 0.00 80 1007.8
20260510043500 20 200 3.2 4.8 0.00 0.00 0.00 79 1007.8
20260510043000 20 167 3.2 4.8 0.00 0.00 0.00 80 1007.8
20260510042500 20 183 3.2 4.8 0.00 0.00 0.00 80 1007.9
20260510042000 20 184 1.6 4.8 0.00 0.00 0.00 80 1007.8
20260510041500 20 165 3.2 4.8 0.00 0.00 0.00 80 1007.8
20260510041000 20 170 3.2 4.8 0.00 0.00 0.00 80 1007.8
20260510040500 20 185 3.2 6.4 0.00 0.00 0.00 80 1007.8
20260510040000 20 194 4.8 6.4 0.00 0.00 0.00 80 1007.8
20260510035500 20 200 4.8 4.8 0.00 0.00 0.00 79 1007.8
20260510035000 20 206 4.8 4.8 0.00 0.00 0.00 78 1007.8
20260510034500 20 198 3.2 6.4 0.00 0.00 0.00 77 1007.7
20260510034000 21 164 3.2 6.4 0.00 0.00 0.00 75 1007.7
20260510033500 20 183 4.8 6.4 0.00 0.00 0.00 76 1007.8
20260510033000 21 168 3.2 6.4 0.00 0.00 0.00 76 1007.8
20260510032500 21 170 4.8 6.4 0.00 0.00 0.00 76 1007.8
20260510032000 21 175 3.2 8.0 0.00 0.00 0.00 76 1007.8
20260510031500 21 163 3.2 8.0 0.00 0.00 0.00 76 1007.7
20260510031000 21 161 4.8 8.0 0.00 0.00 0.00 75 1007.7
20260510030500 21 168 6.4 8.0 0.00 0.00 0.00 75 1007.7
20260510030000 21 185 6.4 8.0 0.00 0.00 0.00 75 1007.6
20260510025500 21 179 6.4 8.0 0.00 0.00 0.00 75 1007.6
20260510025000 21 190 8.0 8.0 0.00 0.00 0.00 75 1007.6
20260510024500 22 194 6.4 12.9 0.00 0.00 0.00 74 1007.6
20260510024001 22 198 4.8 14.5 0.00 0.00 0.00 72 1007.6
20260510023500 22 171 9.7 14.5 0.00 0.00 0.00 71 1007.5
20260510023000 22 181 8.0 12.9 0.00 0.00 0.00 72 1007.3
20260510022500 22 175 9.7 11.3 0.00 0.00 0.00 73 1007.3
20260510022000 22 149 6.4 11.3 0.00 0.00 0.00 74 1007.2
20260510021500 22 143 4.8 9.7 0.00 0.00 0.00 74 1007.2
20260510021000 21 151 3.2 4.8 0.00 0.00 0.00 79 1007.1
20260510020500 21 180 3.2 4.8 0.00 0.00 0.00 78 1007.1
20260510020000 21 175 3.2 4.8 0.00 0.00 0.00 78 1007.0
20260510015500 22 166 3.2 3.2 0.00 0.00 0.00 78 1007.0
20260510015000 21 153 1.6 3.2 0.00 0.00 0.00 78 1007.0
20260510014500 22 157 1.6 4.8 0.00 0.00 0.00 78 1007.0
20260510014000 22 158 3.2 4.8 0.00 0.00 0.00 77 1007.0
20260510013500 22 155 4.8 4.8 0.00 0.00 0.00 75 1006.9
20260510013000 22 154 4.8 4.8 0.00 0.00 0.00 72 1006.9
20260510012500 22 178 3.2 3.2 0.00 0.00 0.00 70 1006.8
20260510012000 23 199 3.2 4.8 0.00 0.00 0.00 72 1006.8
20260510011500 23 181 3.2 6.4 0.00 0.00 0.00 70 1006.7
20260510011000 23 195 3.2 6.4 0.00 0.00 0.00 69 1006.7
20260510010500 23 147 6.4 6.4 0.00 0.00 0.00 67 1006.6
20260510010000 23 161 4.8 9.7 0.00 0.00 0.00 65 1006.6
20260510005500 23 156 4.8 9.7 0.00 0.00 0.00 64 1006.6
20260510005000 23 171 4.8 8.0 0.00 0.00 0.00 68 1006.6
20260510004500 24 186 6.4 6.4 0.00 0.00 0.00 72 1006.5
20260510004000 24 176 4.8 4.8 0.00 0.00 0.00 71 1006.5
20260510003500 25 147 1.6 4.8 0.00 0.00 0.00 65 1006.5
20260510003000 25 102 3.2 4.8 0.00 0.00 0.00 62 1006.4
20260510002500 25 112 3.2 3.2 0.00 0.00 0.00 63 1006.5
20260510002000 25 84 3.2 3.2 0.00 0.00 0.00 61 1006.4
20260510001500 26 79 3.2 4.8 0.00 0.00 0.00 58 1006.4
20260510001000 26 103 3.2 4.8 0.00 0.00 0.00 55 1006.5
20260510000500 26 121 3.2 6.4 0.00 0.00 0.00 55 1006.4
20260510000000 26 103 4.8 6.4 0.00 0.00 0.00 53 1006.4
20260509235500 26 120 4.8 6.4 0.00 0.00 0.00 51 1006.4
20260509235000 26 119 4.8 6.4 0.00 0.00 0.00 53 1006.5
20260509234500 26 163 4.8 6.4 0.00 0.00 0.00 52 1006.5
20260509234000 26 184 4.8 9.7 0.00 0.00 0.00 53 1006.4
20260509233500 26 133 3.2 9.7 0.00 0.00 0.00 52 1006.5
20260509233000 26 150 6.4 8.0 0.00 0.00 0.00 53 1006.5
20260509232500 26 133 6.4 11.3 0.00 0.00 0.00 51 1006.4
20260509232000 26 128 6.4 11.3 0.00 0.00 0.00 50 1006.4
20260509231500 27 135 11.3 11.3 0.00 0.00 0.00 50 1006.5
20260509231000 27 126 9.7 11.3 0.00 0.00 0.00 50 1006.5
20260509230500 27 122 4.8 8.0 0.00 0.00 0.00 50 1006.6
20260509230000 27 152 3.2 6.4 0.00 0.00 0.00 47 1006.6
20260509225500 27 161 3.2 11.3 0.00 0.00 0.00 46 1006.5
20260509225000 27 110 6.4 11.3 0.00 0.00 0.00 45 1006.6
20260509224500 28 148 1.6 4.8 0.00 0.00 0.00 46 1006.6
20260509224000 27 261 3.2 8.0 0.00 0.00 0.00 47 1006.6
20260509223500 27 33 3.2 8.0 0.00 0.00 0.00 48 1006.5
20260509223000 27 159 6.4 8.0 0.00 0.00 0.00 48 1006.5
20260509222500 27 82 3.2 6.4 0.00 0.00 0.00 49 1006.5
20260509222000 27 77 3.2 6.4 0.00 0.00 0.00 50 1006.5
20260509221500 27 11 3.2 6.4 0.00 0.00 0.00 45 1006.4
20260509221000 27 353 4.8 6.4 0.00 0.00 0.00 47 1006.4
20260509220500 27 12 4.8 6.4 0.00 0.00 0.00 45 1006.4
20260509220000 27 25 3.2 4.8 0.00 0.00 0.00 43 1006.4
20260509215500 27 252 3.2 4.8 0.00 0.00 0.00 45 1006.4
20260509215000 27 286 3.2 9.7 0.00 0.00 0.00 49 1006.5
20260509214500 27 29 3.2 9.7 0.00 0.00 0.00 45 1006.5
20260509214000 27 22 9.7 9.7 0.00 0.00 0.00 47 1006.4
20260509213500 27 87 1.6 8.0 0.00 0.00 0.00 48 1006.4
20260509213000 27 312 3.2 6.4 0.00 0.00 0.00 49 1006.4
20260509212501 27 359 4.8 9.7 0.00 0.00 0.00 53 1006.5
20260509212000 26 105 4.8 9.7 0.00 0.00 0.00 49 1006.4
20260509211500 26 96 9.7 9.7 0.00 0.00 0.00 51 1006.4
20260509211000 26 55 3.2 8.0 0.00 0.00 0.00 49 1006.5
20260509210500 26 111 4.8 8.0 0.00 0.00 0.00 47 1006.7
20260509210000 27 253 3.2 9.7 0.00 0.00 0.00 48 1006.8
20260509205500 27 191 3.2 11.3 0.00 0.00 0.00 48 1006.9
20260509205000 27 139 6.4 11.3 0.00 0.00 0.00 47 1007.0
20260509204500 27 108 6.4 8.0 0.00 0.00 0.00 50 1007.0
20260509204000 27 189 3.2 9.7 0.00 0.00 0.00 46 1007.0
20260509203500 27 109 6.4 11.3 0.00 0.00 0.00 48 1007.0
20260509203000 27 40 0.0 11.3 0.00 0.00 0.00 48 1007.0
20260509202500 27 133 4.8 20.9 0.00 0.00 0.00 48 1007.1
20260509202000 27 132 6.4 20.9 0.00 0.00 0.00 51 1007.2
20260509201500 27 57 4.8 9.7 0.00 0.00 0.00 46 1007.2
20260509201000 27 55 1.6 11.3 0.00 0.00 0.00 51 1007.2
20260509200500 27 168 8.0 11.3 0.00 0.00 0.00 50 1007.2
20260509200000 27 92 4.8 9.7 0.00 0.00 0.00 52 1007.2
20260509195500 27 111 6.4 11.3 0.00 0.00 0.00 47 1007.2
20260509195000 26 120 4.8 11.3 0.00 0.00 0.00 54 1007.3
20260509194500 26 68 3.2 14.5 0.00 0.00 0.00 57 1007.4
20260509194000 26 149 4.8 14.5 0.00 0.00 0.00 51 1007.4
20260509193500 26 77 3.2 12.9 0.00 0.00 0.00 52 1007.4
20260509193000 26 128 4.8 12.9 0.00 0.00 0.00 54 1007.4
20260509192500 26 175 9.7 12.9 0.00 0.00 0.00 57 1007.5
20260509192000 26 153 4.8 9.7 0.00 0.00 0.00 52 1007.6
20260509191500 27 124 6.4 8.0 0.00 0.00 0.00 51 1007.7
20260509191000 26 59 1.6 11.3 0.00 0.00 0.00 55 1007.7
20260509190500 26 62 6.4 14.5 0.00 0.00 0.00 58 1007.6
20260509190000 26 30 9.7 14.5 0.00 0.00 0.00 55 1007.6
20260509185500 26 60 3.2 12.9 0.00 0.00 0.00 54 1007.5
20260509185000 26 69 6.4 16.1 0.00 0.00 0.00 58 1007.4
20260509184500 25 143 9.7 16.1 0.00 0.00 0.00 57 1007.5
20260509184000 26 42 3.2 8.0 0.00 0.00 0.00 56 1007.6
20260509183500 26 3 4.8 8.0 0.00 0.00 0.00 55 1007.6
20260509183000 26 139 4.8 11.3 0.00 0.00 0.00 54 1007.7
20260509182500 26 17 1.6 11.3 0.00 0.00 0.00 54 1007.7
20260509182000 26 101 4.8 8.0 0.00 0.00 0.00 54 1007.7
20260509181500 26 212 1.6 8.0 0.00 0.00 0.00 54 1007.7
20260509181000 26 199 3.2 8.0 0.00 0.00 0.00 53 1007.7
20260509180500 25 215 3.2 11.3 0.00 0.00 0.00 54 1007.7
20260509180000 25 69 4.8 11.3 0.00 0.00 0.00 52 1007.7
20260509175500 25 67 4.8 14.5 0.00 0.00 0.00 55 1007.7
20260509175000 26 82 9.7 14.5 0.00 0.00 0.00 54 1007.7
20260509174500 26 163 4.8 14.5 0.00 0.00 0.00 55 1007.8
20260509174000 25 126 4.8 14.5 0.00 0.00 0.00 58 1007.8
20260509173500 25 109 8.0 14.5 0.00 0.00 0.00 53 1007.9
20260509173000 25 146 6.4 14.5 0.00 0.00 0.00 55 1007.9
20260509172500 25 85 6.4 11.3 0.00 0.00 0.00 55 1007.9
20260509172000 25 77 3.2 9.7 0.00 0.00 0.00 62 1007.9
20260509171500 25 207 3.2 9.7 0.00 0.00 0.00 57 1008.0
20260509171000 25 19 4.8 9.7 0.00 0.00 0.00 59 1008.0
20260509170500 25 58 4.8 9.7 0.00 0.00 0.00 59 1008.0
20260509170000 25 271 3.2 9.7 0.00 0.00 0.00 58 1008.0
20260509165500 25 212 9.7 9.7 0.00 0.00 0.00 60 1008.0
20260509165000 24 250 3.2 9.7 0.00 0.00 0.00 63 1008.0
20260509164500 25 283 1.6 9.7 0.00 0.00 0.00 61 1008.0
20260509164000 25 325 9.7 9.7 0.00 0.00 0.00 63 1008.0
20260509163500 24 274 3.2 11.3 0.00 0.00 0.00 60 1008.0
20260509163000 24 251 3.2 11.3 0.00 0.00 0.00 60 1008.0
20260509162500 25 197 6.4 8.0 0.00 0.00 0.00 58 1008.1
20260509162000 24 153 1.6 9.7 0.00 0.00 0.00 59 1008.0
20260509161500 23 337 3.2 9.7 0.00 0.00 0.00 66 1007.9
20260509161000 24 352 9.7 9.7 0.00 0.00 0.00 62 1007.8
20260509160500 23 298 1.6 9.7 0.00 0.00 0.00 61 1007.7
20260509160000 23 59 6.4 11.3 0.00 0.00 0.00 65 1007.6
20260509155500 23 311 4.8 11.3 0.00 0.00 0.00 61 1007.6
20260509155000 23 359 3.2 11.3 0.00 0.00 0.00 64 1007.6
20260509154500 23 18 9.7 12.9 0.00 0.00 0.00 62 1007.6
20260509154000 23 347 3.2 12.9 0.00 0.00 0.00 63 1007.6
20260509153500 23 62 4.8 9.7 0.00 0.00 0.00 65 1007.5
20260509153000 23 70 3.2 9.7 0.00 0.00 0.00 66 1007.5
20260509152500 22 328 3.2 11.3 0.00 0.00 0.00 68 1007.5
20260509152000 22 327 9.7 11.3 0.00 0.00 0.00 67 1007.5
20260509151500 22 324 6.4 11.3 0.00 0.00 0.00 65 1007.5
20260509151000 22 336 3.2 8.0 0.00 0.00 0.00 66 1007.5
20260509150500 22 284 1.6 8.0 0.00 0.00 0.00 69 1007.4
20260509150000 22 259 3.2 8.0 0.00 0.00 0.00 68 1007.4
20260509145500 21 252 6.4 8.0 0.00 0.00 0.00 70 1007.4
20260509145000 21 285 1.6 8.0 0.00 0.00 0.00 68 1007.5
20260509144500 22 342 1.6 6.4 0.00 0.00 0.00 68 1007.5
20260509144000 21 129 1.6 6.4 0.00 0.00 0.00 69 1007.5
20260509143500 21 56 1.6 4.8 0.00 0.00 0.00 69 1007.4
20260509143000 21 285 3.2 6.4 0.00 0.00 0.00 71 1007.3
20260509142500 21 280 3.2 6.4 0.00 0.00 0.00 72 1007.4
20260509142000 21 168 1.6 4.8 0.00 0.00 0.00 71 1007.4
20260509141500 21 260 3.2 4.8 0.00 0.00 0.00 72 1007.3
20260509141001 21 215 1.6 4.8 0.00 0.00 0.00 74 1007.4
20260509140500 20 269 0.0 4.8 0.00 0.00 0.00 75 1007.4
20260509140000 20 229 3.2 6.4 0.00 0.00 0.00 74 1007.4
20260509135501 20 283 3.2 6.4 0.00 0.00 0.00 76 1007.3
20260509135000 20 204 3.2 4.8 0.00 0.00 0.00 77 1007.3
20260509134500 20 208 1.6 6.4 0.00 0.00 0.00 77 1007.2
20260509134000 19 194 4.8 6.4 0.00 0.00 0.00 79 1007.3
20260509133500 19 163 3.2 6.4 0.00 0.00 0.00 79 1007.3
20260509133000 19 221 4.8 6.4 0.00 0.00 0.00 79 1007.2
20260509132500 19 154 3.2 8.0 0.00 0.00 0.00 80 1007.2
20260509132000 18 146 3.2 8.0 0.00 0.00 0.00 81 1007.1
20260509131500 18 185 4.8 8.0 0.00 0.00 0.00 83 1007.1
20260509131000 18 183 4.8 6.4 0.00 0.00 0.00 83 1007.1
20260509130500 18 178 3.2 6.4 0.00 0.00 0.00 83 1007.1
20260509130001 18 202 4.8 6.4 0.00 0.00 0.00 86 1007.0
20260509125500 17 210 3.2 4.8 0.00 0.00 0.00 85 1007.0
20260509125000 17 178 3.2 4.8 0.00 0.00 0.00 87 1006.8
20260509124500 17 142 1.6 3.2 0.00 0.00 0.00 90 1006.7
20260509124000 17 150 1.6 4.8 0.00 0.00 0.00 91 1006.7
20260509123500 16 84 1.6 8.0 0.00 0.00 0.00 92 1006.7
20260509123000 16 187 4.8 9.7 0.00 0.00 0.00 92 1006.6
20260509122500 16 156 4.8 9.7 0.00 0.00 0.00 92 1006.5
20260509122000 16 188 8.0 11.3 0.00 0.00 0.00 92 1006.5
20260509121500 15 203 6.4 11.3 0.00 0.00 0.00 92 1006.5
20260509121000 15 207 4.8 11.3 0.00 0.00 0.00 92 1006.4
20260509120500 15 198 6.4 6.4 0.00 0.00 0.00 92 1006.3
20260509120000 15 172 1.6 6.4 0.00 0.00 0.00 92 1006.2
20260509115500 15 183 4.8 6.4 0.00 0.00 0.00 92 1006.1
20260509115000 15 195 6.4 8.0 0.00 0.00 0.00 92 1006.1
20260509114500 15 190 3.2 9.7 0.00 0.00 0.00 92 1006.1
20260509114000 14 192 4.8 12.9 0.00 0.00 0.00 92 1006.0
20260509113500 14 199 6.4 12.9 0.00 0.00 0.00 92 1005.9
20260509113000 14 175 4.8 9.7 0.00 0.00 0.00 92 1005.8
20260509112500 14 180 6.4 9.7 0.00 0.00 0.00 92 1005.7
20260509112000 14 189 8.0 9.7 0.00 0.00 0.00 92 1005.7
20260509111500 14 185 6.4 6.4 0.00 0.00 0.00 92 1005.5
20260509111000 14 189 3.2 3.2 0.00 0.00 0.00 92 1005.1
20260509110500 14 141 1.6 1.6 0.00 0.00 0.00 92 1005.0
20260509110000 14 96 0.0 3.2 0.00 0.00 0.00 92 1004.9
20260509105500 14 62 1.6 3.2 0.00 0.00 0.00 91 1004.8
20260509105000 14 85 1.6 1.6 0.00 0.00 0.00 91 1004.8